Volver al catálogo

RASSVET-3 6

ActivoCienciaPO
NORAD 68365·PAYLOAD·🇷🇺 Russia

Lanzado Mar 23, 2026 desde Plesetsk Cosmodrome

Loading…

Próximos Pases (próximas 24 horas)

TLE

ActualizadoSource: Space-Track

Época: Sep 14, 2026, 11:55 UTC

1 68365U 26061F   26257.49697382  .00003594  00000-0  17346-3 0  9998
2 68365  82.2909 283.6188 0000300  81.1024 279.0244 15.18389288 26969

Sigue RASSVET-3 6 en tiempo real con AllMySat

Download on the App Store